Regional Weather Roundup
Issued by NWS

Home | Current Version | Previous Version | Graphics & Text | Print | Product List | Glossary On
Versions: 1 2 3 4 5 6 7 8 9 10 11 12 13 14 15 16 17 18 19 20 21 22 23 24 25 26 27 28 29 30 31 32 33 34 35 36 37 38 39 40 41 42 43 44 45 46 47 48 49 50
000
ASUS43 KDTX 132101
RWRMI
MICHIGAN HOURLY REGIONAL WEATHER ROUNDUP
NATIONAL WEATHER SERVICE DETROIT/PONTIAC MI
500 PM EDT SUN JUL 13 2014

NOTE: "FAIR" INDICATES FEW OR NO CLOUDS BELOW 12,000 FEET WITH NO
SIGNIFICANT WEATHER AND/OR OBSTRUCTION TO VISIBILITY.

MIZ047>049-052>055-059>063-066>070-074>076-081>083-132200-
SOUTHEAST LOWER MICHIGAN

CITY           SKY/WX    TMP DP  RH WIND       PRES   REMARKS
ADRIAN         SUNNY     82  64  54 NW7       29.89F
ALMA           PTSUNNY   78  60  52 SW13G18   29.86S
ANN ARBOR      MOSUNNY   83  63  50 NW14      29.87S
BAD AXE        PTSUNNY   78  60  54 W14       29.84S
CARO           SUNNY     82  62  51 W10G16    29.84S
DETROIT CITY   MOSUNNY   85  62  46 NW9       29.84F
DETROIT        MOSUNNY   84  64  50 W13       29.85F
FLINT          MOSUNNY   82  61  48 W16       29.86S
GROSSE ILE     MOSUNNY   84  64  51 W9        29.84F
HILLSDALE      MOSUNNY   80  67  65 W10       29.91S
HOWELL         MOSUNNY   79  60  52 W10       29.87S

CITY           SKY/WX    TMP DP  RH WIND       PRES   REMARKS
JACKSON        SUNNY     80  61  52 VRB7G17   29.89S
LAMBERTVILLE   MOSUNNY   84  61  45 NW9G18    29.87F
LANSING        SUNNY     79  57  46 W14G25    29.88F
LAPEER         FAIR      79  58  47 W8G17     29.86R
MASON          SUNNY     79  60  51 W13       29.89S
MONROE         MOSUNNY   84  63  48 W12G18    29.85F
MT. CLEMENS    MOSUNNY   84  64  49 W13G18    29.82S
PONTIAC        MOSUNNY   82  59  45 W15       29.85F
PORT HOPE        N/A     80  61  52 VRB6G20   29.80R
PORT HURON     PTSUNNY   81  63  54 NW10      29.83S
TRI CITIES     MOSUNNY   81  60  48 SW14      29.84F
TROY           PTSUNNY   82  61  47 NW10G17   29.86R
SAGINAW HB     MOSUNNY   81  59  47 W10       29.84S
$$
MIZ043>046-050>051-056>058-064>065-071>073-077>080-132200-
SOUTHWEST LOWER MICHIGAN

CITY           SKY/WX    TMP DP  RH WIND       PRES   REMARKS
BATTLE CREEK   SUNNY     80  59  48 W12       29.90F
BENTON HARBOR  SUNNY     77  59  53 SW10      29.90F
BIG RAPIDS     PTSUNNY   78  62  58 W9G23     29.86S
COLDWATER      MOSUNNY   81  62  52 W13       29.91S
FREMONT        CLOUDY    75  64  69 SW12      29.87F
HOLLAND        SUNNY     78  64  61 SW14      29.90F
GRAND RAPIDS   MOSUNNY   79  64  60 W14       29.89S
IONIA          FAIR      78  61  56 W12       29.88S
KALAMAZOO      SUNNY     81  58  45 W8        29.90F
LUDINGTON      SUNNY     72  65  79 SW10      29.87S
MARSHALL       SUNNY     79  60  51 W10G16    29.89F
MOUNT PLEASANT MOSUNNY   80  62  54 W9        29.84S
MUSKEGON       PTSUNNY   75  63  66 SW12      29.88F
SOUTH HAVEN    SUNNY     77  61  57 SW10      29.91S
$$
MIZ016>042-132200-
NORTHERN LOWER MICHIGAN

CITY           SKY/WX    TMP DP  RH WIND       PRES   REMARKS
ALPENA         MOSUNNY   75  53  46 NW12G21   29.81R
BEAVER ISLAND  SUNNY     71  48  44 NW6       29.85R
BELLAIRE       SUNNY     72  52  49 NW6       29.85S
CADILLAC       PTSUNNY   72  58  62 W13G21    29.86S
CHARLEVOIX     SUNNY     68  54  61 N3        29.88S
FRANKFORT      SUNNY     70  60  69 W6        29.85S
GAYLORD        MOSUNNY   69  53  56 W13G18    29.86R
GRAYLING       MOSUNNY   73  56  54 NW14      29.86R
HARBOR SPRINGS MOSUNNY   67  58  72 SW5       29.84R
HOUGHTON LAKE  PTSUNNY   74  55  51 W15       29.85S
MANISTEE       SUNNY     73  61  64 W10       29.86S
OSCODA         PTSUNNY   79  52  39 NW17G23   29.80R
PELLSTON       SUNNY     71  47  42 W12       29.85S
ROGERS CITY    MOSUNNY   70  54  56 W12G18    29.84R
TRAVERSE CITY  MOSUNNY   73  55  53 N13       29.83S
$$
MIZ007>008-015-132200-
EASTERN UPPER MICHIGAN

CITY           SKY/WX    TMP DP  RH WIND       PRES   REMARKS
KINROSS        SUNNY     66  46  48 NW13G21   29.83R
MACKINAC ISLAN SUNNY     68  46  45 W16G22    29.82S
NEWBERRY       MOSUNNY   68  44  42 W13G23    29.83S
S. S. MARIE    MOSUNNY   65  48  54 NW13G25   29.83R
$$
MIZ004>006-011>014-085-132200-
CENTRAL UPPER MICHIGAN

CITY           SKY/WX    TMP DP  RH WIND       PRES   REMARKS
MANISTIQUE     MOSUNNY   70  54  57 S8        29.83R
ESCANABA       MOSUNNY   73  45  35 W10       29.82S
MENOMINEE      MOSUNNY   75  45  33 NW8       29.83S
$$
MIZ001>003-009>011-084-132200-
WESTERN UPPER MICHIGAN

CITY           SKY/WX    TMP DP  RH WIND       PRES   REMARKS
IRON MOUNTAIN  MOSUNNY   74  42  31 W13G21    29.84S
HOUGHTON       SUNNY     68  45  43 W20G36    29.80F
COPPER HARBOR    N/A     69  45  41 NW12G23   29.78S
IRONWOOD       PTSUNNY   68  48  49 W9G16     29.82F
$$

ABBREVIATIONS USED IN REMARKS
   TC - TEMPERATURE IN CELSIUS
  WCI - WIND CHILL INDEX
   HX - HEAT INDEX
  VSB - VISIBILITY




USA.gov is the U.S. government's official web portal to all federal, state and local government web resources and services.